Wind_Speed
4 5 6 7 7 7 7 7 6 4 3 3 5 7 8 9 10 12 13 13 15 16 15 15 15 15 14 13 10 6 3 2 3 1 4 4 4 3 4 4 4 2 0 1 1 2 2 3 4 4 5 5 5 4 4 5 6 6 7 6 6 6 7
4 6 6 7 7 7 8 9 8 6 4 3 4 5 7 8 9 11 11 12 13 15 15 14 13 13 14 14 13 11 9 8 8 5 3 6 4 3 3 3 4 3 1 0 2 3 3 2 2 2 3 5 5 4 5 7 7 6 5 6 6 5 6
4 5 5 6 6 7 7 8 8 7 5 4 5 5 6 6 8 10 10 10 11 12 14 14 13 12 12 14 14 12 11 10 10 8 4 4 4 3 3 3 3 3 1 2 3 4 4 4 4 3 2 4 5 4 5 7 7 7 6 6 6 5 5
4 4 4 5 5 6 6 7 7 7 6 5 4 6 6 6 7 8 9 9 8 10 12 13 13 12 11 13 14 11 10 10 9 10 9 4 1 3 4 4 4 4 3 3 4 5 6 6 7 6 5 6 7 5 6 7 7 8 8 7 6 4 5
4 4 4 4 4 5 6 6 6 6 6 6 5 4 5 6 7 7 9 8 7 7 9 11 12 12 11 11 12 10 8 9 9 9 10 8 5 1 2 4 4 4 3 3 5 5 6 8 9 10 9 9 9 8 7 9 9 9 9 7 6 5 6
3 3 3 4 4 5 6 6 5 5 6 6 6 5 5 6 6 7 8 8 7 7 8 9 10 11 11 11 11 9 8 8 8 8 9 9 8 7 4 4 5 5 4 4 6 6 6 8 9 11 12 10 11 10 7 8 11 10 9 8 7 6 6
2 3 5 6 6 7 8 7 6 6 7 7 7 7 7 7 7 6 7 7 7 7 7 8 9 10 11 11 10 9 8 8 7 7 8 8 8 8 7 5 5 6 6 5 7 8 7 9 10 11 12 10 9 10 6 6 7 9 9 8 8 6 4
3 4 6 7 8 9 9 8 8 9 9 9 8 8 8 8 8 8 7 7 7 7 7 7 7 9 11 11 11 10 9 9 9 8 7 7 7 6 7 6 5 6 6 6 8 10 9 10 11 12 12 9 6 5 3 2 1 4 6 7 7 4 3
4 4 5 7 8 10 10 9 9 10 11 11 10 11 10 10 10 10 10 9 9 9 8 8 7 8 9 11 11 10 10 10 11 10 6 5 5 6 5 5 4 6 6 7 9 10 11 10 10 12 11 8 7 6 3 1 3 4 7 9 7 3 2
5 5 6 6 7 10 11 11 11 10 11 11 11 12 12 11 11 11 11 11 11 11 11 11 10 9 10 11 11 11 11 11 12 11 8 6 5 6 7 5 5 7 8 9 9 9 11 10 9 10 9 7 8 9 8 5 2 2 5 8 7 6 6
4 4 6 6 7 9 10 11 11 10 10 10 11 11 11 11 12 12 12 12 12 12 12 13 13 12 12 13 13 12 12 11 12 12 10 9 7 7 9 9 8 8 8 10 10 9 10 10 9 8 8 8 9 10 11 10 9 7 6 6 7 8 7
4 4 5 6 7 8 9 10 10 10 10 10 10 10 10 11 12 12 13 13 13 13 14 14 14 14 15 15 15 15 14 13 14 13 12 11 10 10 11 12 12 11 11 11 11 10 10 9 9 8 8 10 10 11 11 12 13 11 10 10 11 10 9
5 5 5 6 7 8 9 9 10 10 10 9 10 10 11 11 12 13 14 15 15 16 16 16 16 16 17 17 18 18 18 16 16 16 14 13 12 12 13 13 13 14 13 13 13 13 12 11 10 9 9 11 11 11 12 13 15 15 11 11 12 13 13
6 6 6 7 7 8 8 9 9 10 10 10 11 11 11 12 12 14 15 16 17 17 17 17 17 18 18 19 19 19 20 20 20 19 18 16 14 14 14 14 14 13 13 15 16 15 15 15 13 12 12 13 13 12 13 15 17 18 14 10 10 11 12
6 6 6 6 7 7 8 8 9 10 11 12 12 13 13 13 13 14 15 16 17 17 18 18 18 18 19 19 20 20 20 21 22 22 21 20 18 15 15 16 16 14 13 15 16 17 18 18 17 16 15 15 15 14 14 15 17 19 17 13 11 12 12
5 5 5 6 7 7 8 9 10 12 12 13 14 15 16 16 16 16 16 17 18 18 19 20 20 20 20 20 21 21 22 22 23 23 23 23 21 18 17 17 17 17 16 16 16 16 18 19 20 20 19 18 18 16 14 14 15 18 19 17 15 14 14
3 4 6 7 8 8 9 10 11 12 13 14 14 15 17 17 18 18 18 19 19 19 20 21 21 21 22 22 22 22 22 23 23 24 24 24 23 22 19 18 18 18 19 20 19 18 18 19 21 22 22 21 20 19 18 16 17 17 19 20 19 17 16
3 5 7 8 8 9 10 10 11 13 13 14 15 16 17 18 19 20 21 22 22 22 22 23 23 23 24 24 24 24 24 24 24 24 24 25 25 25 23 21 20 19 19 22 22 21 20 20 21 22 24 23 22 22 21 20 20 20 20 22 22 20 18
4 5 6 7 6 7 9 10 11 12 14 15 16 17 18 19 20 21 22 22 23 24 24 25 26 26 26 25 25 25 25 26 27 25 24 24 26 27 26 24 23 23 22 23 23 23 22 22 23 24 25 25 25 25 26 25 24 23 23 24 24 23 22
3 3 4 6 7 9 10 12 13 14 15 16 16 16 16 16 17 18 20 20 20 20 21 23 24 25 25 25 25 25 25 26 27 26 25 25 25 26 27 27 26 26 26 27 26 24 24 24 26 27 27 27 26 27 28 29 28 28 27 26 26 25 25
6 7 9 10 11 11 11 11 11 11 12 12 12 13 14 15 17 18 19 18 17 17 17 18 19 20 21 22 23 23 23 23 24 24 25 26 25 24 24 26 28 27 27 28 27 25 24 25 27 28 28 27 27 28 29 30 30 30 30 30 29 27 26
10 11 12 12 10 9 7 6 7 8 10 12 13 15 16 18 19 20 19 18 17 17 17 17 18 18 19 20 21 22 22 22 21 21 21 22 22 22 23 26 28 29 28 28 26 25 26 27 28 29 28 28 28 29 29 29 30 31 32 33 32 30 28
12 11 10 9 7 6 5 6 9 11 14 15 16 16 16 16 17 18 17 17 16 16 17 17 17 18 18 18 19 19 19 19 17 17 16 16 17 18 19 21 24 26 27 26 25 25 26 28 28 28 29 29 30 30 31 30 30 32 33 35 35 33 32
10 9 8 6 5 5 8 11 14 15 16 16 14 13 12 13 14 14 14 16 16 16 16 16 17 17 17 17 17 17 17 16 15 13 12 12 13 13 14 15 17 20 22 23 23 23 25 27 27 27 28 28 28 30 30 29 29 31 32 35 36 35 34
10 8 6 4 5 9 12 15 17 17 16 14 12 11 11 12 13 13 13 14 16 17 18 17 17 17 17 16 16 16 15 15 13 12 11 11 11 12 12 12 12 13 15 16 17 19 22 24 26 28 29 27 27 29 29 28 29 29 29 33 36 37 36
8 5 4 6 10 13 16 18 18 16 13 11 10 11 12 13 14 13 12 12 14 15 16 16 16 17 17 17 17 17 17 16 15 14 13 12 12 11 12 12 12 11 12 12 14 15 16 19 21 24 25 25 25 26 26 26 27 29 30 32 35 36 36
4 5 8 11 14 15 16 15 14 13 12 10 9 11 12 13 14 14 12 11 12 13 14 15 16 17 18 18 19 19 18 18 17 16 16 15 14 14 14 14 14 14 13 12 13 14 15 16 17 18 18 19 20 21 21 22 24 26 31 34 35 35 34
6 8 11 13 14 13 12 11 10 11 11 10 9 11 13 13 13 12 10 10 10 12 13 15 16 17 18 18 19 18 18 18 18 17 16 15 15 14 14 14 15 15 16 15 15 16 17 16 17 17 17 18 18 19 19 19 20 21 25 30 33 35 35
9 10 11 12 11 11 10 9 9 9 9 9 10 11 12 12 11 11 11 11 11 12 13 14 16 17 17 18 18 18 19 20 19 18 17 16 16 15 14 14 14 15 16 17 17 18 18 18 18 19 20 21 21 21 20 19 19 19 20 22 25 28 32
10 10 10 9 9 8 7 8 9 9 10 10 11 11 11 11 11 11 11 11 12 13 14 14 16 17 18 19 20 20 21 21 20 19 18 17 17 16 15 15 15 15 16 17 18 19 20 20 21 21 22 23 23 24 22 21 21 20 19 20 21 22 25
10 9 8 7 6 6 8 10 11 10 10 11 11 11 10 10 11 11 11 11 11 12 13 14 16 18 20 22 23 23 22 21 20 19 18 17 17 17 16 15 15 16 16 17 18 19 20 22 23 24 25 25 26 26 25 23 23 23 21 20 20 20 21
7 6 5 4 5 6 7 9 9 9 10 10 11 12 11 11 12 12 12 11 9 10 13 16 18 20 22 23 23 22 22 21 21 21 21 20 19 18 18 17 17 17 17 17 17 19 20 21 22 23 23 24 24 25 23 22 22 23 24 23 22 21 21
4 3 3 4 5 4 5 7 7 9 10 11 11 13 14 15 15 13 11 9 9 10 14 17 20 22 23 23 22 21 23 23 23 23 23 23 22 22 21 21 20 18 17 18 20 20 19 18 18 19 19 20 21 22 22 21 20 21 23 25 24 24 23
3 3 3 4 5 4 5 8 8 8 10 11 12 14 16 18 17 14 12 10 10 12 15 18 20 23 24 23 22 23 25 26 26 25 24 24 24 24 24 24 21 19 19 20 21 19 17 15 14 15 15 16 18 19 20 21 20 20 21 22 23 23 23
3 3 3 3 5 5 6 8 8 8 9 11 13 14 16 17 17 16 16 15 14 15 17 18 19 21 23 23 22 23 25 26 26 25 24 24 25 24 24 23 21 20 20 20 19 18 17 16 15 15 15 15 16 16 17 18 19 19 19 20 20 21 22
7 6 4 4 7 7 7 8 8 7 9 10 11 13 15 16 16 15 17 18 17 16 17 18 18 19 21 21 21 22 24 26 25 23 22 23 23 22 22 21 20 19 18 18 18 18 17 17 17 17 17 16 15 15 15 16 17 18 18 19 19 19 20
7 6 5 5 7 7 6 6 7 7 8 8 9 13 16 15 14 14 15 17 17 17 17 17 17 17 19 20 20 21 23 26 25 22 21 21 21 20 20 19 18 17 17 17 17 17 18 19 19 19 19 17 16 16 16 16 17 18 18 18 19 19 19
Wind_Direction
25 21 15 13 16 17 19 28 34 28 14 347 339 345 355 3 5 11 18 19 17 19 24 32 35 35 43 54 57 51 34 354 341 244 180 173 167 136 107 114 120 117 245 288 251 211 182 160 184 210 208 225 264 306 334 327 330 340 345 346 348 360 7
27 16 12 17 22 23 22 23 26 30 25 359 342 342 352 359 0 7 15 17 15 13 17 25 28 27 31 36 36 31 29 33 36 50 159 187 186 182 174 157 149 138 132 244 299 286 257 230 222 233 206 212 233 257 279 288 291 296 312 324 332 355 6
18 9 5 14 20 20 18 14 12 20 28 11 350 345 350 357 356 359 7 11 12 12 14 19 21 24 27 27 27 25 25 26 24 32 65 168 185 201 223 232 215 203 202 253 277 277 266 271 286 291 257 234 237 233 251 276 281 275 278 292 307 342 4
355 352 348 355 2 6 6 4 2 9 23 21 3 348 346 355 354 350 353 359 5 9 12 14 14 17 21 22 25 27 31 28 19 25 39 56 185 214 235 263 265 260 277 305 307 290 275 280 290 294 280 265 265 240 233 257 266 273 278 275 282 318 344
325 329 335 338 338 344 346 346 356 11 19 19 13 357 343 350 355 347 343 345 351 356 2 6 5 6 9 14 21 25 31 34 29 30 35 39 40 40 262 275 288 296 305 336 345 327 300 291 291 296 291 279 273 256 247 263 264 271 277 263 260 288 312
319 332 355 1 355 359 352 343 349 3 8 6 6 5 353 347 347 342 337 334 333 335 343 351 350 350 353 359 11 18 23 26 24 20 21 29 39 44 21 310 296 306 312 330 343 343 337 322 309 303 297 287 278 267 270 285 273 263 260 252 250 264 288
28 40 38 35 30 25 15 1 357 357 355 353 352 358 3 360 353 344 332 322 319 319 324 332 333 332 336 342 352 359 2 6 8 7 5 6 17 34 32 1 324 318 314 314 326 331 340 343 341 329 311 297 279 268 283 319 287 254 242 238 232 237 286
63 57 44 34 29 26 21 15 13 9 5 2 358 1 7 11 11 7 355 336 321 313 313 321 322 318 321 327 336 339 340 344 348 353 357 350 347 5 25 19 354 341 331 318 323 329 334 337 344 343 325 312 302 275 274 23 40 205 207 207 208 225 313
60 56 42 27 18 18 16 14 14 8 5 4 3 3 4 7 12 14 11 3 350 338 332 331 325 314 312 315 321 324 323 323 328 336 342 336 327 329 350 2 346 343 340 326 324 328 332 333 338 342 332 319 327 325 307 61 96 130 170 181 183 202 286
60 47 37 22 11 12 11 10 9 3 358 356 355 358 0 4 6 5 4 1 357 354 349 345 340 330 320 316 317 320 318 311 313 322 323 315 309 301 307 317 318 328 333 329 328 326 329 336 337 339 337 330 334 337 327 303 284 160 172 184 192 215 238
62 38 25 18 12 12 12 9 7 5 2 359 357 358 1 3 3 360 357 353 347 345 345 344 340 334 325 320 320 321 320 310 305 310 311 307 306 294 289 290 292 305 316 319 323 321 322 333 336 331 329 327 328 331 327 314 292 263 233 228 231 237 246
59 41 23 16 12 12 12 8 5 5 4 2 0 0 359 359 357 353 350 347 342 337 336 335 333 329 321 317 316 317 319 314 306 307 306 300 299 293 287 286 286 291 298 303 309 309 307 317 325 322 316 316 318 316 314 313 299 277 264 265 259 253 261
49 38 26 16 9 9 8 5 5 5 3 0 357 356 355 353 351 346 342 340 338 335 331 330 328 324 318 314 311 310 311 308 305 307 308 302 297 292 288 287 286 288 289 289 293 296 296 300 304 303 302 305 309 307 302 300 297 289 286 285 275 265 270
34 26 22 15 6 6 6 5 7 5 4 2 357 355 354 352 348 345 341 337 336 334 330 328 326 321 316 313 310 308 307 304 301 302 303 302 300 295 290 289 288 289 287 285 286 287 288 291 291 289 289 293 299 301 296 290 291 292 293 294 293 287 286
22 16 16 11 5 6 8 10 10 6 5 3 358 355 352 350 347 342 339 336 334 332 330 328 325 320 315 312 310 307 305 301 300 299 297 298 300 299 293 287 287 289 288 285 285 286 285 286 287 284 282 285 290 294 293 287 286 289 291 293 298 299 301
17 19 21 18 15 14 13 13 10 5 6 4 359 356 351 347 343 338 335 333 331 329 327 325 322 318 314 313 311 309 306 301 299 298 296 296 297 297 294 290 287 286 285 282 282 284 284 284 284 283 281 281 283 287 289 287 283 286 289 293 295 296 298
28 32 28 23 20 16 12 10 7 2 0 359 356 354 349 344 339 334 331 328 326 324 322 320 318 314 311 310 308 307 305 301 297 296 295 295 295 293 292 293 294 289 283 280 280 279 280 281 281 280 279 278 279 282 284 281 280 282 285 287 290 293 294
39 34 26 21 20 16 7 358 355 352 346 342 340 337 333 328 323 320 319 318 317 316 316 315 313 311 310 307 305 303 302 300 297 296 294 294 292 290 289 289 292 291 284 280 279 277 276 276 277 276 275 276 277 280 280 278 276 277 279 282 287 290 288
30 28 19 9 360 351 341 330 324 322 317 314 312 310 310 309 307 304 304 305 306 307 308 308 307 307 307 304 300 299 298 299 299 296 291 289 288 286 286 285 283 282 280 279 280 279 278 277 277 276 273 274 277 279 279 278 275 273 273 278 283 286 285
347 333 312 300 294 296 302 301 297 297 298 299 299 299 299 300 299 299 299 300 300 300 299 299 298 298 299 298 295 293 293 295 296 293 286 285 287 284 282 280 277 275 274 275 277 278 279 280 281 280 276 275 276 277 277 278 276 272 271 272 276 280 284
260 261 269 275 280 284 288 292 293 294 296 299 300 300 301 302 302 302 303 304 305 303 301 298 297 298 300 302 301 301 302 302 302 297 289 288 290 286 281 278 277 276 275 273 272 272 275 278 280 281 279 277 277 276 275 275 274 271 269 269 271 274 280
257 258 264 270 273 274 276 284 295 302 307 310 310 309 309 308 307 307 309 312 313 311 312 312 313 314 314 312 309 309 310 311 311 307 300 296 296 295 291 286 284 285 283 278 275 274 276 277 277 278 278 276 274 273 272 272 272 271 268 266 267 269 272
257 253 253 251 246 251 271 297 311 315 315 315 316 316 316 315 316 320 327 332 331 328 327 326 326 326 325 322 319 316 316 318 321 320 316 309 303 299 297 292 289 288 286 283 282 281 279 277 277 278 277 274 272 269 268 268 270 270 267 264 265 267 268
230 221 216 218 236 274 304 314 318 319 320 323 327 329 330 333 335 342 353 357 356 354 350 346 342 340 338 337 334 331 330 332 335 334 330 324 315 308 304 296 291 288 286 285 287 286 282 279 278 279 277 275 273 272 271 269 269 268 264 262 263 264 266
199 199 207 248 300 316 319 318 318 323 331 338 341 340 343 346 348 355 3 4 3 2 359 357 355 354 355 357 356 355 353 351 351 348 340 334 327 319 313 307 301 297 295 297 299 297 291 284 280 280 282 282 279 276 275 274 273 272 268 264 261 260 262
202 224 279 314 319 317 317 319 323 331 344 349 341 341 347 348 349 353 356 358 1 0 359 2 2 2 5 8 8 7 6 4 3 2 358 354 348 341 333 326 320 315 314 317 318 314 308 300 290 286 289 291 287 283 281 279 278 277 275 271 267 263 261
241 288 308 314 314 315 321 328 332 337 346 349 342 344 351 351 350 351 353 358 2 2 3 6 5 3 5 7 7 7 8 8 7 6 4 2 359 355 350 343 337 332 329 331 332 329 324 319 312 305 300 297 295 292 290 288 286 280 273 270 268 266 264
287 301 310 313 316 324 333 336 336 340 346 351 348 348 352 355 358 4 12 14 10 10 12 10 4 2 3 4 5 6 8 9 8 6 4 3 1 357 352 346 342 337 335 334 335 333 330 327 324 320 314 309 305 303 301 299 297 290 280 272 266 264 264
301 308 316 320 326 337 344 343 344 348 351 352 351 353 358 3 11 26 36 31 23 19 17 11 6 5 4 2 2 2 3 3 3 2 2 3 2 358 351 344 340 335 333 332 330 329 329 328 325 321 318 316 314 311 311 310 307 303 296 287 279 272 267
315 324 327 332 342 356 8 13 9 1 356 358 360 2 8 13 20 34 40 34 27 22 18 13 10 6 3 0 358 357 357 358 358 358 0 1 0 358 354 348 341 335 332 331 329 328 326 324 321 319 316 314 313 311 313 315 312 309 306 301 298 291 278
327 335 337 345 6 26 31 29 24 15 9 13 15 12 9 6 13 27 33 27 24 23 19 15 9 3 0 358 356 356 356 355 355 356 357 357 356 356 355 352 347 342 338 334 331 329 327 323 320 318 317 316 315 315 316 315 311 309 308 305 303 301 293
331 343 351 15 45 46 30 25 27 24 21 24 25 21 16 6 3 14 23 23 26 27 19 12 7 4 1 0 0 3 1 357 357 358 357 354 351 350 350 350 350 347 343 341 337 334 333 329 325 325 326 326 326 326 323 316 308 306 307 306 305 305 303
346 6 28 60 72 61 36 35 35 24 19 19 17 18 22 18 11 11 16 21 26 23 16 11 10 9 8 8 10 11 9 5 3 1 358 355 352 349 348 349 350 351 351 349 346 342 341 340 337 338 340 339 338 338 336 330 320 313 310 309 308 306 303
42 55 66 72 88 96 67 47 35 18 13 12 9 9 14 16 17 18 18 17 15 12 12 13 12 11 13 14 14 13 12 9 6 1 358 355 353 351 352 351 353 356 357 354 349 346 346 346 343 342 342 340 340 342 343 344 341 334 325 321 317 312 308
77 79 71 69 85 85 56 31 21 12 9 7 5 6 8 11 18 23 23 20 16 14 14 13 11 10 11 10 8 8 10 9 5 1 357 354 352 354 357 358 359 359 356 351 349 347 345 342 338 336 333 333 336 339 343 348 350 347 343 339 333 327 323
81 78 86 77 59 45 30 23 19 15 11 3 359 5 10 13 17 21 21 18 14 12 12 10 6 5 5 4 1 2 5 7 4 0 357 354 354 357 360 2 4 360 352 349 351 356 356 355 354 352 347 341 339 341 345 352 356 355 352 350 345 341 339
91 89 105 85 49 39 41 39 30 22 14 4 3 12 15 14 14 15 17 15 10 6 6 4 359 356 356 355 353 354 359 3 1 357 356 357 358 0 3 4 2 356 349 349 353 357 1 3 5 4 3 359 353 350 350 353 357 358 356 354 353 352 353
Height
1523 1523 1523 1522 1522 1521 1521 1520 1520 1520 1519 1519 1518 1518 1517 1517 1516 1516 1515 1514 1513 1512 1511 1510 1509 1509 1508 1508 1507 1507 1506 1505 1505 1505 1505 1504 1504 1504 1503 1503 1503 1502 1502 1502 1502 1502 1501 1501 1500 1500 1500 1500 1500 1499 1499 1498 1498 1498 1498 1498 1497 1496 1496
1523 1523 1523 1522 1522 1521 1521 1520 1520 1520 1519 1519 1518 1518 1517 1517 1516 1516 1515 1515 1514 1513 1512 1511 1511 1510 1509 1509 1508 1507 1507 1506 1505 1505 1504 1504 1504 1504 1503 1503 1503 1503 1503 1503 1502 1502 1502 1501 1501 1500 1500 1500 1500 1499 1498 1498 1498 1498 1498 1497 1497 1497 1496
1524 1523 1523 1522 1522 1521 1521 1520 1520 1520 1519 1519 1518 1517 1517 1517 1516 1516 1515 1515 1514 1514 1513 1512 1512 1511 1510 1509 1509 1508 1507 1507 1506 1506 1505 1505 1504 1504 1504 1503 1503 1503 1503 1503 1502 1502 1502 1502 1501 1501 1500 1500 1499 1499 1498 1498 1497 1497 1497 1497 1496 1496 1496
1523 1523 1522 1522 1521 1521 1521 1520 1520 1519 1519 1519 1518 1518 1517 1517 1516 1516 1515 1515 1515 1514 1514 1513 1512 1512 1511 1510 1510 1509 1508 1508 1507 1507 1506 1505 1505 1505 1504 1503 1503 1503 1502 1502 1502 1502 1502 1501 1501 1501 1500 1500 1499 1498 1498 1497 1497 1496 1496 1496 1496 1496 1495
1523 1523 1522 1522 1521 1521 1520 1520 1520 1519 1519 1519 1518 1518 1517 1517 1516 1516 1515 1515 1515 1514 1514 1514 1513 1512 1512 1511 1511 1510 1509 1509 1508 1507 1507 1506 1506 1505 1505 1504 1503 1503 1503 1502 1502 1501 1501 1501 1500 1500 1500 1499 1498 1497 1497 1496 1496 1495 1495 1495 1495 1495 1495
1523 1523 1522 1522 1521 1521 1520 1520 1519 1519 1518 1518 1518 1518 1517 1517 1516 1516 1515 1515 1515 1514 1514 1514 1513 1513 1512 1512 1511 1511 1510 1509 1509 1508 1507 1507 1506 1506 1505 1505 1504 1504 1503 1503 1502 1501 1501 1501 1500 1499 1499 1498 1497 1497 1497 1496 1495 1494 1494 1494 1494 1494 1494
1523 1523 1522 1522 1521 1521 1520 1519 1519 1518 1518 1517 1517 1517 1517 1516 1516 1515 1515 1515 1515 1514 1514 1514 1513 1513 1513 1512 1511 1511 1510 1510 1509 1508 1508 1507 1507 1506 1505 1505 1504 1504 1503 1503 1502 1502 1501 1500 1499 1498 1498 1497 1496 1496 1496 1495 1494 1493 1493 1493 1494 1494 1494
1523 1523 1522 1522 1521 1521 1520 1519 1519 1518 1518 1517 1517 1516 1516 1516 1515 1515 1515 1514 1514 1514 1514 1513 1513 1513 1512 1512 1511 1511 1510 1510 1509 1509 1508 1507 1507 1506 1506 1505 1505 1504 1503 1503 1502 1501 1501 1500 1499 1498 1497 1496 1496 1495 1495 1495 1493 1492 1492 1493 1494 1494 1494
1523 1522 1522 1522 1521 1521 1520 1520 1519 1518 1518 1517 1517 1516 1516 1515 1515 1515 1514 1514 1513 1513 1513 1513 1513 1512 1512 1512 1511 1511 1510 1510 1509 1508 1508 1507 1506 1506 1505 1505 1505 1504 1503 1502 1502 1501 1500 1500 1499 1498 1497 1496 1496 1495 1495 1494 1493 1492 1492 1492 1493 1493 1493
1523 1522 1522 1522 1521 1521 1520 1520 1519 1519 1518 1517 1517 1516 1516 1515 1515 1514 1514 1514 1513 1513 1513 1512 1512 1512 1511 1511 1511 1510 1510 1509 1509 1508 1508 1507 1506 1506 1505 1505 1504 1504 1503 1502 1502 1501 1500 1500 1499 1498 1497 1496 1496 1495 1495 1494 1494 1493 1492 1492 1492 1492 1491
1523 1523 1522 1522 1522 1521 1520 1520 1519 1519 1518 1517 1517 1516 1515 1515 1514 1514 1514 1513 1513 1513 1512 1512 1511 1511 1510 1510 1509 1509 1509 1508 1508 1508 1507 1507 1506 1505 1505 1504 1504 1503 1503 1502 1502 1501 1500 1500 1499 1498 1498 1497 1496 1495 1495 1494 1493 1493 1493 1492 1492 1491 1490
1523 1523 1522 1522 1522 1521 1520 1520 1519 1519 1518 1517 1517 1516 1515 1514 1514 1513 1513 1513 1512 1512 1512 1511 1511 1510 1510 1509 1508 1508 1508 1507 1507 1506 1506 1506 1505 1505 1504 1504 1504 1503 1503 1502 1501 1501 1500 1499 1499 1498 1498 1497 1496 1495 1494 1494 1493 1492 1492 1492 1491 1491 1490
1523 1523 1522 1522 1521 1521 1520 1520 1519 1519 1518 1517 1517 1516 1515 1514 1514 1513 1513 1512 1512 1511 1511 1511 1510 1510 1509 1508 1507 1507 1507 1506 1506 1505 1505 1504 1504 1504 1503 1503 1502 1502 1502 1501 1501 1500 1500 1499 1498 1498 1497 1497 1496 1495 1494 1493 1492 1490 1491 1490 1490 1490 1489
1523 1523 1522 1522 1521 1521 1520 1520 1519 1519 1518 1517 1517 1516 1515 1514 1514 1513 1512 1512 1511 1510 1510 1509 1509 1508 1507 1507 1506 1506 1505 1505 1504 1504 1503 1503 1503 1502 1502 1501 1501 1501 1500 1500 1499 1499 1498 1498 1497 1497 1496 1495 1495 1494 1493 1492 1491 1489 1489 1489 1488 1488 1488
1523 1523 1522 1521 1521 1521 1520 1520 1519 1518 1518 1517 1517 1516 1515 1514 1513 1513 1512 1511 1511 1510 1509 1508 1508 1507 1506 1505 1504 1504 1503 1503 1502 1502 1502 1501 1501 1501 1500 1499 1499 1499 1499 1498 1498 1497 1497 1496 1496 1495 1495 1494 1493 1493 1492 1491 1490 1488 1487 1487 1487 1486 1486
1523 1522 1522 1521 1521 1520 1520 1519 1519 1518 1518 1517 1516 1516 1515 1514 1513 1512 1511 1511 1510 1509 1508 1507 1506 1505 1504 1503 1503 1502 1501 1501 1500 1500 1500 1499 1499 1499 1498 1497 1497 1497 1496 1496 1495 1495 1495 1495 1494 1493 1493 1492 1491 1491 1490 1489 1488 1487 1486 1485 1485 1485 1484
1522 1522 1521 1521 1521 1520 1520 1519 1519 1518 1518 1517 1516 1516 1515 1514 1513 1512 1511 1510 1509 1508 1507 1506 1505 1503 1502 1501 1501 1500 1499 1499 1498 1497 1497 1497 1497 1497 1496 1495 1495 1494 1494 1493 1493 1493 1493 1492 1492 1491 1490 1490 1489 1488 1488 1487 1486 1485 1484 1483 1482 1483 1482
1522 1521 1521 1521 1520 1520 1520 1519 1519 1518 1517 1517 1516 1515 1514 1513 1512 1511 1510 1508 1507 1506 1505 1504 1503 1502 1501 1500 1498 1498 1497 1496 1496 1495 1494 1494 1494 1494 1494 1493 1493 1492 1492 1491 1490 1490 1490 1490 1489 1489 1488 1487 1486 1486 1486 1485 1484 1483 1482 1480 1480 1480 1480
1521 1521 1521 1520 1520 1520 1519 1518 1518 1517 1516 1515 1514 1513 1512 1511 1510 1509 1507 1506 1505 1504 1503 1502 1501 1500 1498 1497 1496 1495 1494 1494 1493 1492 1492 1492 1491 1491 1491 1490 1490 1490 1489 1488 1488 1487 1487 1487 1486 1485 1485 1484 1484 1483 1483 1482 1482 1481 1480 1478 1477 1477 1477
1520 1520 1520 1520 1519 1519 1518 1517 1516 1515 1515 1513 1512 1511 1510 1509 1508 1506 1505 1503 1502 1501 1500 1499 1497 1496 1495 1494 1493 1493 1492 1491 1490 1489 1489 1488 1488 1488 1488 1487 1486 1486 1486 1485 1485 1485 1484 1484 1483 1482 1482 1481 1481 1481 1480 1479 1479 1478 1477 1476 1475 1474 1474
1519 1519 1519 1518 1518 1517 1516 1516 1515 1514 1513 1512 1511 1510 1508 1507 1506 1505 1503 1502 1500 1499 1497 1496 1494 1493 1492 1491 1490 1490 1489 1488 1487 1486 1486 1485 1485 1484 1484 1483 1482 1482 1481 1481 1481 1481 1481 1480 1479 1478 1478 1479 1478 1478 1477 1477 1476 1475 1474 1473 1472 1472 1472
1518 1518 1517 1517 1517 1516 1515 1515 1514 1513 1512 1511 1510 1508 1507 1505 1504 1503 1501 1500 1498 1497 1495 1494 1492 1491 1490 1489 1488 1487 1486 1485 1484 1484 1483 1482 1481 1481 1480 1480 1479 1479 1478 1477 1477 1476 1476 1476 1475 1474 1474 1475 1474 1474 1474 1473 1473 1472 1471 1470 1469 1469 1469
1517 1516 1516 1515 1515 1515 1515 1514 1513 1512 1511 1509 1508 1506 1505 1504 1502 1501 1500 1498 1497 1495 1494 1492 1491 1489 1488 1487 1486 1485 1484 1483 1482 1481 1480 1479 1478 1478 1478 1477 1477 1476 1475 1474 1474 1473 1473 1473 1472 1471 1471 1470 1470 1470 1469 1469 1469 1468 1468 1467 1466 1466 1465
1515 1515 1515 1515 1514 1514 1514 1512 1511 1510 1509 1507 1506 1505 1504 1503 1501 1500 1499 1497 1496 1494 1493 1491 1490 1488 1487 1486 1485 1483 1482 1481 1480 1479 1478 1476 1476 1475 1475 1474 1473 1472 1472 1471 1471 1470 1469 1469 1468 1467 1466 1466 1466 1466 1466 1465 1464 1464 1465 1464 1463 1463 1462
1514 1514 1514 1514 1514 1513 1512 1511 1509 1508 1507 1505 1504 1503 1502 1501 1500 1500 1498 1496 1495 1494 1493 1491 1489 1488 1487 1485 1484 1483 1481 1480 1479 1478 1476 1475 1474 1473 1472 1471 1470 1469 1469 1468 1467 1466 1465 1464 1464 1463 1462 1462 1463 1462 1462 1461 1460 1460 1461 1460 1460 1460 1459
1513 1513 1513 1513 1512 1511 1510 1509 1508 1507 1505 1505 1504 1502 1501 1500 1500 1499 1498 1496 1495 1494 1492 1491 1490 1488 1487 1485 1484 1483 1481 1480 1479 1477 1476 1474 1473 1472 1470 1469 1468 1467 1467 1465 1464 1463 1462 1461 1460 1460 1458 1458 1458 1457 1456 1456 1456 1456 1456 1456 1455 1454 1454
1512 1512 1511 1511 1510 1509 1509 1508 1507 1506 1505 1504 1503 1502 1501 1500 1499 1498 1497 1496 1495 1494 1492 1491 1490 1488 1487 1485 1484 1483 1482 1480 1479 1477 1476 1474 1473 1471 1470 1468 1467 1466 1465 1464 1463 1462 1460 1459 1457 1456 1455 1454 1453 1453 1452 1452 1452 1451 1451 1450 1450 1449 1449
1511 1510 1510 1509 1509 1508 1508 1507 1506 1505 1504 1504 1503 1501 1500 1499 1499 1498 1497 1496 1495 1493 1492 1491 1490 1489 1487 1486 1484 1483 1482 1480 1479 1477 1476 1474 1473 1471 1469 1468 1467 1466 1464 1463 1462 1460 1459 1457 1455 1454 1452 1451 1451 1450 1449 1449 1448 1447 1446 1445 1444 1444 1444
1510 1509 1509 1508 1508 1507 1507 1507 1506 1505 1504 1504 1503 1501 1500 1499 1498 1498 1497 1496 1495 1494 1493 1492 1490 1489 1487 1485 1484 1483 1481 1480 1479 1477 1476 1474 1473 1471 1469 1468 1466 1465 1463 1462 1460 1459 1457 1455 1454 1452 1450 1449 1448 1447 1447 1446 1445 1444 1443 1442 1441 1440 1440
1508 1508 1508 1507 1507 1507 1506 1506 1506 1505 1504 1504 1503 1501 1500 1499 1498 1498 1497 1496 1495 1494 1493 1491 1490 1488 1487 1485 1483 1482 1480 1479 1478 1476 1475 1473 1472 1470 1469 1467 1465 1464 1462 1460 1459 1457 1455 1454 1452 1450 1449 1447 1446 1444 1444 1444 1442 1441 1440 1439 1438 1437 1436
1508 1507 1507 1506 1506 1506 1506 1506 1506 1505 1504 1503 1503 1502 1501 1499 1498 1497 1496 1496 1495 1494 1493 1491 1490 1488 1486 1485 1483 1481 1480 1478 1477 1475 1474 1472 1471 1470 1468 1467 1465 1463 1461 1460 1458 1456 1454 1452 1450 1448 1446 1445 1443 1442 1441 1440 1439 1437 1437 1436 1435 1434 1433
1507 1507 1506 1506 1506 1506 1506 1506 1506 1505 1504 1504 1503 1502 1501 1499 1498 1497 1496 1495 1495 1494 1493 1491 1490 1488 1486 1485 1483 1481 1479 1478 1476 1474 1473 1471 1470 1468 1467 1465 1464 1462 1460 1459 1457 1455 1453 1451 1448 1447 1445 1443 1441 1439 1438 1437 1435 1434 1433 1432 1431 1431 1430
1507 1507 1506 1506 1506 1506 1505 1506 1505 1505 1504 1504 1503 1502 1501 1499 1497 1496 1496 1495 1494 1493 1492 1491 1490 1488 1486 1485 1483 1481 1479 1478 1476 1474 1472 1470 1468 1467 1465 1464 1462 1461 1459 1457 1455 1453 1452 1450 1447 1445 1443 1441 1439 1437 1436 1434 1433 1432 1430 1429 1428 1427 1426
1507 1507 1506 1506 1506 1505 1505 1505 1505 1505 1504 1504 1503 1502 1501 1500 1498 1496 1496 1495 1494 1493 1492 1491 1490 1488 1487 1485 1483 1482 1480 1478 1476 1474 1472 1470 1468 1466 1464 1462 1460 1459 1458 1456 1454 1452 1450 1448 1446 1444 1442 1440 1438 1436 1434 1433 1431 1430 1428 1427 1425 1424 1423
1507 1507 1507 1506 1505 1505 1505 1505 1505 1504 1504 1503 1502 1502 1501 1500 1498 1497 1496 1495 1494 1493 1492 1491 1490 1488 1487 1485 1484 1482 1480 1478 1476 1474 1472 1470 1468 1466 1464 1462 1460 1458 1457 1455 1453 1451 1449 1447 1445 1443 1441 1439 1437 1435 1433 1431 1430 1428 1426 1425 1423 1421 1420
1507 1507 1507 1506 1505 1505 1504 1504 1504 1504 1503 1503 1502 1501 1500 1499 1498 1497 1496 1495 1494 1493 1492 1491 1489 1488 1487 1485 1483 1482 1480 1478 1476 1474 1472 1469 1467 1466 1464 1462 1460 1458 1456 1454 1452 1451 1449 1446 1444 1442 1440 1438 1435 1433 1431 1430 1428 1426 1425 1423 1421 1420 1418
1507 1507 1506 1506 1505 1504 1503 1503 1503 1503 1503 1502 1501 1501 1499 1498 1498 1497 1496 1495 1493 1492 1491 1490 1489 1488 1486 1485 1483 1481 1480 1478 1476 1473 1471 1469 1468 1466 1464 1462 1460 1458 1456 1454 1452 1450 1448 1446 1444 1442 1439 1437 1435 1433 1431 1429 1427 1425 1424 1422 1420 1419 1417